Terminal Aerodrome Forecast
Issued by NWS

Home | Current Version | Previous Version | Text Only | Print | Product List | Glossary On
Versions: 1 2 3 4 5 6 7 8 9 10 11 12 13 14 15 16 17
000
FTAK31 PAJN 262300 RRA
TAFAPG
TAF
PAPG 262342Z 2700/2724 VRB05KT P6SM VCSH SCT025 BKN040
     FM270700 VRB03KT 4SM BR VCSH SCT005 BKN040
      TEMPO 2714/2717 1SM -SHRA BR BKN005 BKN040
     FM271700 VRB03KT P6SM VCSH SCT025 BKN040
      AMD LTD TO CLD VIS AND WIND 2706/2715=

USA.gov is the U.S. government's official web portal to all federal, state and local government web resources and services.